Terug naar catalogus

CZ-6A DEB

ActiefPO
NORAD 60780·DEBRIS·🇨🇳 China

Gelanceerd Aug 6, 2024 vanaf Taiyuan Satellite Launch Center

Loading…

Volgende Passages (komende 24 uur)

TLE

VersSource: Space-Track

Epoch: Sep 14, 2026, 11:04 UTC

1 60780U 24140FF  26257.46161637  .00000304  00000-0  92664-4 0  9996
2 60780  88.9603 258.8010 0084344  68.7653 292.2530 14.37275211109601

Volg CZ-6A DEB in realtime met AllMySat

Download on the App Store